TimeMDT,TemperatureF,Dew PointF,Humidity,Sea Level PressureIn,VisibilityMPH,Wind Direction,Wind SpeedMPH,Gust SpeedMPH,PrecipitationIn,Events,Conditions,WindDirDegrees,DateUTC
12:53 AM,34.0,32.0,92,29.59,10.0,SSE,6.9,-,N/A,,Clear,160,2013-04-16 06:53:00
1:53 AM,32.0,30.9,96,29.60,10.0,ESE,4.6,-,N/A,,Clear,120,2013-04-16 07:53:00
2:53 AM,32.0,30.9,96,29.58,10.0,South,6.9,-,N/A,,Clear,180,2013-04-16 08:53:00
3:53 AM,35.1,30.0,82,29.56,10.0,ESE,5.8,-,N/A,,Clear,110,2013-04-16 09:53:00
4:53 AM,42.1,28.0,58,29.55,10.0,South,9.2,-,N/A,,Clear,170,2013-04-16 10:53:00
6:53 AM,48.0,24.1,39,29.56,10.0,South,4.6,-,N/A,,Clear,170,2013-04-16 12:53:00
7:53 AM,48.9,24.1,38,29.58,10.0,Variable,6.9,-,N/A,,Clear,0,2013-04-16 13:53:00
8:53 AM,53.1,27.0,37,29.56,10.0,SSW,33.4,43.7,N/A,,Clear,210,2013-04-16 14:53:00
9:53 AM,55.9,27.0,33,29.52,10.0,SW,17.3,28.8,N/A,,Partly Cloudy,230,2013-04-16 15:53:00
10:53 AM,59.0,24.1,26,29.49,10.0,SW,27.6,38.0,N/A,,Clear,220,2013-04-16 16:53:00
11:53 AM,62.1,21.9,21,29.47,10.0,SSW,29.9,47.2,N/A,,Clear,210,2013-04-16 17:53:00
12:53 PM,63.0,21.0,20,29.45,10.0,SW,28.8,39.1,N/A,,Partly Cloudy,230,2013-04-16 18:53:00
1:53 PM,66.0,19.9,17,29.42,10.0,SW,29.9,42.6,N/A,,Clear,230,2013-04-16 19:53:00
2:53 PM,66.9,21.0,17,29.41,10.0,SW,24.2,40.3,N/A,,Clear,230,2013-04-16 20:53:00
3:53 PM,66.9,19.0,16,29.38,5.0,WSW,26.5,35.7,N/A,,Haze,240,2013-04-16 21:53:00
4:00 PM,66.2,19.4,17,29.53,5.0,WSW,27.6,39.1,N/A,,Haze,250,2013-04-16 22:00:00
4:53 PM,55.9,33.1,42,29.44,10.0,NW,31.1,36.8,N/A,,Mostly Cloudy,310,2013-04-16 22:53:00
5:07 PM,55.4,32.0,41,29.58,10.0,NW,23.0,29.9,N/A,,Scattered Clouds,320,2013-04-16 23:07:00
5:53 PM,51.1,33.1,50,29.48,10.0,NW,20.7,39.1,N/A,,Partly Cloudy,320,2013-04-16 23:53:00
6:53 PM,46.9,34.0,61,29.56,10.0,NW,15.0,27.6,N/A,,Clear,320,2013-04-17 00:53:00
7:53 PM,43.0,33.1,68,29.63,10.0,NNW,18.4,27.6,N/A,,Clear,340,2013-04-17 01:53:00
8:53 PM,41.0,33.1,73,29.66,10.0,NW,11.5,-,N/A,,Mostly Cloudy,320,2013-04-17 02:53:00
9:53 PM,39.9,33.1,77,29.71,10.0,North,5.8,-,0.00,Rain,Light Rain,360,2013-04-17 03:53:00
10:53 PM,36.0,30.9,82,29.73,10.0,North,8.1,-,0.00,,Overcast,360,2013-04-17 04:53:00
11:40 PM,35.6,30.2,81,29.83,10.0,NNE,10.4,-,N/A,,Overcast,30,2013-04-17 05:40:00
11:53 PM,35.1,30.0,82,29.72,10.0,North,9.2,-,N/A,,Overcast,360,2013-04-17 05:53:00